OK,94,19,916,94,2014-10-01T01:40:00,1,28072686,193053
OK,94,19,916,94,2014-10-01T01:45:00,1,28073133,193053
OK,94,19,916,94,2014-10-01T01:50:00,0,28073581,193053
OK,94,19,916,94,2014-10-01T01:55:00,0,28073899,193053
OK,94,19,916,94,2014-10-01T02:00:00,0,28074348,193053
OK,94,19,916,94,2014-10-01T02:05:00,0,28074789,193053
OK,94,19,916,94,2014-10-01T02:10:00,0,28075237,193053
OK,94,19,916,94,2014-10-01T02:20:00,0,28075686,193053
OK,94,19,916,94,2014-10-01T02:25:00,0,28076518,193053
OK,94,19,916,94,2014-10-01T02:30:00,0,28076967,193053
OK,94,19,916,94,2014-10-01T02:35:00,0,28077416,193053
OK,94,19,916,94,2014-10-01T02:40:00,0,28077819,193053
OK,94,19,916,94,2014-10-01T02:45:00,0,28078268,193053
OK,94,19,916,94,2014-10-01T02:50:00,0,28078713,193053
OK,94,19,916,94,2014-10-01T02:55:00,0,28079162,193053
OK,94,19,916,94,2014-10-01T03:00:00,0,28079604,193053
OK,94,19,916,94,2014-10-01T03:05:00,0,28080053,193053
OK,94,19,916,94,2014-10-01T03:10:00,0,28080387,193053
OK,94,19,916,94,2014-10-01T03:15:00,0,28080836,193053
OK,94,19,916,94,2014-10-01T03:20:00,0,28081285,193053
OK,94,19,916,94,2014-10-01T03:25:00,0,28081732,193053
OK,94,19,916,94,2014-10-01T03:30:00,0,28082181,193053
OK,94,19,916,94,2014-10-01T03:35:00,0,28082614,193053
OK,94,19,916,94,2014-10-01T03:40:00,0,28083046,193053
OK,94,19,916,94,2014-10-01T03:45:00,0,28083495,193053
OK,112,16,916,112,2014-10-01T03:55:00,1,28083944,193053
OK,112,16,916,112,2014-10-01T04:00:00,0,28084811,193053
OK,112,16,916,112,2014-10-01T04:05:00,0,28085259,193053
OK,112,16,916,112,2014-10-01T04:10:00,0,28085704,193053
OK,89,20,916,89,2014-10-01T04:15:00,1,28086153,193053
OK,89,20,916,89,2014-10-01T04:20:00,1,28086595,193053
OK,89,20,916,89,2014-10-01T04:25:00,0,28087044,193053
OK,74,25,916,74,2014-10-01T04:30:00,1,28087489,193053
OK,74,25,916,74,2014-10-01T04:35:00,0,28087938,193053
OK,74,25,916,74,2014-10-01T04:40:00,0,28088363,193053
OK,74,25,916,74,2014-10-01T04:45:00,0,28088811,193053
OK,74,25,916,74,2014-10-01T04:50:00,0,28089241,193053
OK,74,25,916,74,2014-10-01T04:55:00,0,28089690,193053
OK,74,25,916,74,2014-10-01T05:05:00,0,28090139,193053
OK,115,16,916,115,2014-10-01T05:10:00,1,28090932,193053
OK,115,16,916,115,2014-10-01T05:15:00,0,28091381,193053
OK,115,16,916,115,2014-10-01T05:20:00,0,28091798,193053
OK,115,16,916,115,2014-10-01T05:25:00,0,28092247,193053
OK,115,16,916,115,2014-10-01T05:30:00,0,28092691,193053
OK,87,21,916,87,2014-10-01T05:35:00,1,28093132,193053
OK,87,21,916,87,2014-10-01T05:40:00,1,28093563,193053
OK,57,32,916,57,2014-10-01T05:45:00,1,28094012,193053
OK,70,26,916,70,2014-10-01T05:50:00,2,28094424,193053
OK,83,22,916,83,2014-10-01T05:55:00,1,28094868,193053
OK,83,22,916,83,2014-10-01T06:00:00,0,28095315,193053
OK,161,11,916,161,2014-10-01T06:05:00,3,28095764,193053
OK,143,13,916,143,2014-10-01T06:10:00,4,28096177,193053
OK,136,13,916,136,2014-10-01T06:15:00,2,28096626,193053
OK,163,11,916,163,2014-10-01T06:20:00,1,28097060,193053
OK,163,11,916,163,2014-10-01T06:25:00,0,28097509,193053
OK,45,41,916,45,2014-10-01T06:30:00,1,28097958,193053
OK,45,41,916,45,2014-10-01T06:35:00,1,28098396,193053
OK,81,23,916,81,2014-10-01T06:40:00,1,28098839,193053
OK,109,17,916,109,2014-10-01T06:45:00,2,28099287,193053
OK,96,19,916,96,2014-10-01T06:50:00,2,28099630,193053
OK,55,33,916,55,2014-10-01T06:55:00,1,28100079,193053
OK,55,33,916,55,2014-10-01T07:00:00,0,28100386,193053
OK,55,33,916,55,2014-10-01T07:05:00,0,28100835,193053
OK,55,33,916,55,2014-10-01T07:10:00,0,28101206,193053
OK,55,33,916,55,2014-10-01T07:15:00,0,28101655,193053
OK,55,33,916,55,2014-10-01T07:20:00,0,28102091,193053
OK,55,33,916,55,2014-10-01T07:30:00,0,28102540,193053
OK,55,33,916,55,2014-10-01T07:35:00,0,28103414,193053
OK,55,33,916,55,2014-10-01T07:40:00,0,28103859,193053
OK,55,33,916,55,2014-10-01T07:45:00,1,28104304,193053
OK,106,17,916,106,2014-10-01T07:50:00,2,28104746,193053
OK,157,11,916,157,2014-10-01T07:55:00,0,28105190,193053
OK,53,35,916,53,2014-10-01T08:00:00,1,28105630,193053
OK,53,35,916,53,2014-10-01T08:05:00,1,28106079,193053
OK,53,35,916,53,2014-10-01T08:10:00,0,28106516,193053
OK,53,35,916,53,2014-10-01T08:15:00,0,28106922,193053
OK,103,18,916,103,2014-10-01T08:20:00,1,28107354,193053
OK,107,17,916,107,2014-10-01T08:25:00,2,28107803,193053
OK,92,20,916,92,2014-10-01T08:30:00,2,28108242,193053
OK,73,25,916,73,2014-10-01T08:35:00,1,28108691,193053
OK,73,25,916,73,2014-10-01T08:40:00,0,28109119,193053
OK,73,25,916,73,2014-10-01T08:45:00,0,28109568,193053
OK,73,25,916,73,2014-10-01T08:50:00,0,28109911,193053
OK,73,25,916,73,2014-10-01T08:55:00,0,28110360,193053
OK,73,25,916,73,2014-10-01T09:00:00,0,28110783,193053
OK,73,25,916,73,2014-10-01T09:05:00,0,28111232,193053
OK,73,25,916,73,2014-10-01T09:10:00,0,28111661,193053
OK,73,25,916,73,2014-10-01T09:15:00,0,28112110,193053
OK,73,25,916,73,2014-10-01T09:20:00,0,28112451,193053
OK,73,25,916,73,2014-10-01T09:25:00,0,28112900,193053
OK,73,25,916,73,2014-10-01T09:30:00,0,28113324,193053
OK,102,18,916,102,2014-10-01T09:35:00,2,28113773,193053
OK,71,26,916,71,2014-10-01T09:40:00,3,28114205,193053
OK,48,38,916,48,2014-10-01T09:45:00,0,28114654,193053
OK,142,13,916,142,2014-10-01T09:50:00,1,28115008,193053
OK,56,33,916,56,2014-10-01T09:55:00,1,28115457,193053
OK,56,33,916,56,2014-10-01T10:00:00,1,28115869,193053
OK,113,16,916,113,2014-10-01T10:05:00,3,28116318,193053
OK,113,16,916,113,2014-10-01T10:10:00,3,28116726,193053
OK,133,14,916,133,2014-10-01T10:15:00,0,28117175,193053
OK,148,12,916,148,2014-10-01T10:20:00,1,28117600,193053
OK,148,12,916,148,2014-10-01T10:25:00,1,28118049,193053
OK,148,12,916,148,2014-10-01T10:30:00,0,28118494,193053
OK,148,12,916,148,2014-10-01T10:35:00,0,28118941,193053
OK,148,12,916,148,2014-10-01T10:40:00,0,28119385,193053
OK,148,12,916,148,2014-10-01T10:45:00,0,28119833,193053
OK,148,12,916,148,2014-10-01T10:50:00,0,28120281,193053
OK,148,12,916,148,2014-10-01T10:55:00,0,28120730,193053
OK,116,16,916,116,2014-10-01T11:00:00,1,28121113,193053
OK,116,16,916,116,2014-10-01T11:05:00,1,28121562,193053
OK,86,21,916,86,2014-10-01T11:10:00,2,28122000,193053
OK,86,21,916,86,2014-10-01T11:15:00,2,28122449,193053
OK,87,21,916,87,2014-10-01T11:20:00,0,28122890,193053
OK,195,9,916,195,2014-10-01T11:25:00,1,28123339,193053
OK,131,14,916,131,2014-10-01T11:30:00,2,28123771,193053
OK,131,14,916,131,2014-10-01T11:35:00,0,28124220,193053
OK,131,14,916,131,2014-10-01T11:40:00,0,28124622,193053
OK,131,14,916,131,2014-10-01T11:45:00,0,28125071,193053
OK,131,14,916,131,2014-10-01T11:50:00,0,28125500,193053
OK,131,14,916,131,2014-10-01T11:55:00,0,28125949,193053
OK,131,14,916,131,2014-10-01T12:00:00,0,28126301,193053
OK,131,14,916,131,2014-10-01T12:05:00,0,28126750,193053
OK,95,19,916,95,2014-10-01T12:10:00,1,28127199,193053
OK,101,18,916,101,2014-10-01T12:15:00,1,28127648,193053
OK,93,20,916,93,2014-10-01T12:20:00,2,28128076,193053
OK,81,23,916,81,2014-10-01T12:25:00,3,28128525,193053
OK,74,25,916,74,2014-10-01T12:30:00,2,28128960,193053
OK,110,16,916,110,2014-10-01T12:35:00,1,28129409,193053
OK,110,16,916,110,2014-10-01T12:40:00,1,28129843,193053
OK,110,16,916,110,2014-10-01T12:45:00,0,28130292,193053
OK,83,22,916,83,2014-10-01T12:50:00,1,28130720,193053
OK,95,19,916,95,2014-10-01T12:55:00,2,28131169,193053
OK,107,17,916,107,2014-10-01T13:00:00,1,28131606,193053
OK,113,16,916,113,2014-10-01T13:05:00,1,28132055,193053
OK,113,16,916,113,2014-10-01T13:10:00,1,28132493,193053
OK,113,16,916,113,2014-10-01T13:15:00,0,28132940,193053
OK,119,15,916,119,2014-10-01T13:20:00,1,28133378,193053
OK,119,15,916,119,2014-10-01T13:25:00,1,28133827,193053
OK,119,15,916,119,2014-10-01T13:30:00,0,28134266,193053
OK,119,15,916,119,2014-10-01T13:35:00,0,28134715,193053
OK,119,15,916,119,2014-10-01T13:40:00,0,28135134,193053
OK,37,50,916,37,2014-10-01T13:45:00,1,28135583,193053
OK,37,50,916,37,2014-10-01T13:50:00,1,28136020,193053
OK,99,18,916,99,2014-10-01T13:55:00,3,28136469,193053
OK,96,19,916,96,2014-10-01T14:00:00,3,28136909,193053
OK,58,32,916,58,2014-10-01T14:05:00,1,28137358,193053
OK,81,23,916,81,2014-10-01T14:10:00,1,28137792,193053
OK,81,23,916,81,2014-10-01T14:15:00,0,28138241,193053
OK,81,23,916,81,2014-10-01T14:20:00,0,28138669,193053
OK,81,23,916,81,2014-10-01T14:25:00,0,28139118,193053
OK,81,23,916,81,2014-10-01T14:30:00,0,28139529,193053
OK,81,23,916,81,2014-10-01T14:35:00,0,28139978,193053
OK,81,23,916,81,2014-10-01T14:40:00,0,28140420,193053
OK,81,23,916,81,2014-10-01T14:45:00,0,28140869,193053
OK,100,18,916,100,2014-10-01T14:50:00,2,28141295,193053
OK,100,18,916,100,2014-10-01T14:55:00,2,28141744,193053
OK,104,17,916,104,2014-10-01T15:00:00,1,28142172,193053
OK,104,17,916,104,2014-10-01T15:05:00,1,28142621,193053
OK,104,17,916,104,2014-10-01T15:10:00,0,28143048,193053
OK,104,17,916,104,2014-10-01T15:15:00,0,28143497,193053
OK,104,17,916,104,2014-10-01T15:20:00,0,28143945,193053
OK,104,17,916,104,2014-10-01T15:25:00,0,28144394,193053
OK,224,8,916,224,2014-10-01T15:30:00,1,28144816,193053
OK,224,8,916,224,2014-10-01T15:35:00,1,28145229,193053
OK,224,8,916,224,2014-10-01T15:40:00,0,28145678,193053
OK,224,8,916,224,2014-10-01T15:45:00,0,28146127,193053
OK,224,8,916,224,2014-10-01T15:50:00,0,28146576,193053
OK,224,8,916,224,2014-10-01T15:55:00,0,28146985,193053
OK,224,8,916,224,2014-10-01T16:00:00,0,28147428,193053
OK,119,15,916,119,2014-10-01T16:05:00,2,28147877,193053
OK,117,15,916,117,2014-10-01T16:10:00,3,28148278,193053
OK,44,42,916,44,2014-10-01T16:15:00,1,28148727,193053
OK,44,42,916,44,2014-10-01T16:20:00,0,28149166,193053
OK,44,42,916,44,2014-10-01T16:25:00,0,28149615,193053
OK,44,42,916,44,2014-10-01T16:30:00,0,28150041,193053
OK,44,42,916,44,2014-10-01T16:35:00,0,28150490,193053
OK,44,42,916,44,2014-10-01T16:40:00,0,28150908,193053
OK,44,42,916,44,2014-10-01T16:45:00,0,28151357,193053
OK,73,25,916,73,2014-10-01T16:55:00,1,28151806,193053
OK,55,33,916,55,2014-10-01T17:00:00,2,28152255,193053
OK,51,36,916,51,2014-10-01T17:05:00,1,28152701,193053
OK,163,11,916,163,2014-10-01T17:10:00,1,28153148,193053
OK,163,11,916,163,2014-10-01T17:15:00,0,28153597,193053
OK,163,11,916,163,2014-10-01T17:20:00,0,28154007,193053
OK,163,11,916,163,2014-10-01T17:25:00,0,28154456,193053
OK,163,11,916,163,2014-10-01T17:30:00,0,28154898,193053
OK,163,11,916,163,2014-10-01T17:35:00,0,28155346,193053
OK,163,11,916,163,2014-10-01T17:40:00,0,28155764,193053
OK,163,11,916,163,2014-10-01T17:45:00,0,28156213,193053
OK,84,22,916,84,2014-10-01T17:50:00,2,28156662,193053
OK,84,22,916,84,2014-10-01T17:55:00,2,28157100,193053
OK,65,28,916,65,2014-10-01T18:00:00,1,28157530,193053
OK,65,28,916,65,2014-10-01T18:05:00,1,28157978,193053
OK,65,28,916,65,2014-10-01T18:10:00,0,28158422,193053
OK,65,28,916,65,2014-10-01T18:15:00,0,28158868,193053
OK,65,28,916,65,2014-10-01T18:20:00,0,28159314,193053
OK,65,28,916,65,2014-10-01T18:25:00,0,28159649,193053
OK,65,28,916,65,2014-10-01T18:30:00,0,28160098,193053
OK,65,28,916,65,2014-10-01T18:35:00,0,28160547,193053
OK,65,28,916,65,2014-10-01T18:40:00,0,28160985,193053
OK,65,28,916,65,2014-10-01T18:45:00,0,28161434,193053
OK,68,27,916,68,2014-10-01T18:50:00,1,28161851,193053
OK,97,19,916,97,2014-10-01T18:55:00,2,28162300,193053
OK,126,14,916,126,2014-10-01T19:00:00,2,28162695,193053
OK,126,14,916,126,2014-10-01T19:05:00,0,28163133,193053
OK,126,14,916,126,2014-10-01T19:10:00,0,28163581,193053
OK,126,14,916,126,2014-10-01T19:15:00,0,28164030,193053
OK,126,14,916,126,2014-10-01T19:20:00,0,28164461,193053
OK,63,29,916,63,2014-10-01T19:25:00,1,28164910,193053
OK,63,29,916,63,2014-10-01T19:30:00,0,28165335,193053
OK,63,29,916,63,2014-10-01T19:35:00,0,28165783,193053
OK,63,29,916,63,2014-10-01T19:40:00,0,28166224,193053
OK,63,29,916,63,2014-10-01T19:45:00,0,28166586,193053
OK,63,29,916,63,2014-10-01T19:50:00,0,28167035,193053
OK,63,29,916,63,2014-10-01T19:55:00,0,28167464,193053
OK,63,29,916,63,2014-10-01T20:00:00,0,28167897,193053
OK,63,29,916,63,2014-10-01T20:05:00,0,28168346,193053
OK,63,29,916,63,2014-10-01T20:10:00,0,28168791,193053
OK,63,29,916,63,2014-10-01T20:15:00,0,28169240,193053
OK,63,29,916,63,2014-10-01T20:20:00,0,28169688,193053
OK,64,29,916,64,2014-10-01T20:25:00,1,28170114,193053
OK,64,29,916,64,2014-10-01T20:30:00,1,28170559,193053
OK,64,29,916,64,2014-10-01T20:35:00,0,28171007,193053
OK,64,29,916,64,2014-10-01T20:40:00,0,28171444,193053
OK,64,29,916,64,2014-10-01T20:45:00,0,28171890,193053
OK,64,29,916,64,2014-10-01T20:50:00,0,28172338,193053
OK,64,29,916,64,2014-10-01T20:55:00,0,28172784,193053
OK,64,29,916,64,2014-10-01T21:00:00,0,28173230,193053
OK,64,29,916,64,2014-10-01T21:05:00,0,28173679,193053
OK,64,29,916,64,2014-10-01T21:10:00,0,28174120,193053
OK,64,29,916,64,2014-10-01T21:15:00,0,28174569,193053
OK,72,25,916,72,2014-10-01T21:20:00,1,28174995,193053
OK,72,25,916,72,2014-10-01T21:25:00,1,28175391,193053
OK,72,25,916,72,2014-10-01T21:30:00,0,28175840,193053
OK,72,25,916,72,2014-10-01T21:35:00,0,28176289,193053
OK,72,25,916,72,2014-10-01T21:40:00,0,28176738,193053
OK,72,25,916,72,2014-10-01T21:45:00,0,28177095,193053
OK,72,25,916,72,2014-10-01T21:50:00,0,28177534,193053
OK,72,25,916,72,2014-10-01T21:55:00,0,28177980,193053
OK,72,25,916,72,2014-10-01T22:00:00,0,28178429,193053
OK,72,25,916,72,2014-10-01T22:05:00,0,28178876,193053
OK,72,25,916,72,2014-10-01T22:10:00,0,28179310,193053
OK,72,25,916,72,2014-10-01T22:15:00,0,28179753,193053
OK,72,25,916,72,2014-10-01T22:20:00,0,28180200,193053
OK,72,25,916,72,2014-10-01T22:25:00,0,28180598,193053
OK,72,25,916,72,2014-10-01T22:30:00,0,28181047,193053
OK,72,25,916,72,2014-10-01T22:35:00,0,28181471,193053
OK,72,25,916,72,2014-10-01T22:40:00,0,28181919,193053
OK,72,25,916,72,2014-10-01T22:45:00,0,28182366,193053
OK,72,25,916,72,2014-10-01T22:50:00,0,28182815,193053
OK,72,25,916,72,2014-10-01T22:55:00,0,28183232,193053
OK,72,25,916,72,2014-10-01T23:00:00,0,28183665,193053
OK,72,25,916,72,2014-10-01T23:05:00,0,28184110,193053
OK,72,25,916,72,2014-10-01T23:10:00,0,28184559,193053
OK,72,25,916,72,2014-10-01T23:15:00,0,28184994,193053
OK,72,25,916,72,2014-10-01T23:20:00,0,28185442,193053
OK,72,25,916,72,2014-10-01T23:25:00,0,28185873,193053
OK,72,25,916,72,2014-10-01T23:30:00,0,28186265,193053
OK,72,25,916,72,2014-10-01T23:40:00,0,28187112,193053
OK,72,25,916,72,2014-10-01T23:45:00,0,28187554,193053
OK,72,25,916,72,2014-10-01T23:50:00,0,28188003,193053
OK,72,25,916,72,2014-10-01T23:55:00,0,28188444,193053
OK,72,25,916,72,2014-10-02T00:00:00,0,28188880,193053
OK,72,25,916,72,2014-10-02T00:05:00,0,28189329,193053
OK,72,25,916,72,2014-10-02T00:10:00,0,28189751,193053
OK,72,25,916,72,2014-10-02T00:15:00,0,28190200,193053
OK,72,25,916,72,2014-10-02T00:20:00,0,28190553,193053
OK,72,25,916,72,2014-10-02T00:25:00,0,28191002,193053
OK,72,25,916,72,2014-10-02T00:30:00,0,28191451,193053
OK,72,25,916,72,2014-10-02T00:35:00,0,28191757,193053
OK,72,25,916,72,2014-10-02T00:40:00,0,28192206,193053
OK,72,25,916,72,2014-10-02T00:45:00,0,28192639,193053
OK,72,25,916,72,2014-10-02T00:50:00,0,28193083,193053
OK,72,25,916,72,2014-10-02T00:55:00,0,28193450,193053
OK,72,25,916,72,2014-10-02T01:05:00,0,28194348,193053
OK,72,25,916,72,2014-10-02T01:15:00,0,28194797,193053
OK,72,25,916,72,2014-10-02T01:20:00,0,28195482,193053
OK,72,25,916,72,2014-10-02T01:30:00,0,28195931,193053
OK,72,25,916,72,2014-10-02T01:35:00,0,28196664,193053
OK,72,25,916,72,2014-10-02T01:40:00,0,28197087,193053
OK,72,25,916,72,2014-10-02T01:45:00,0,28197536,193053
OK,72,25,916,72,2014-10-02T01:50:00,0,28197984,193053
OK,72,25,916,72,2014-10-02T01:55:00,0,28198432,193053
OK,72,25,916,72,2014-10-02T02:05:00,0,28198881,193053
OK,72,25,916,72,2014-10-02T02:10:00,0,28199695,193053
OK,72,25,916,72,2014-10-02T02:15:00,0,28200137,193053
OK,72,25,916,72,2014-10-02T02:20:00,0,28200580,193053
OK,72,25,916,72,2014-10-02T02:25:00,0,28201029,193053
OK,72,25,916,72,2014-10-02T02:30:00,0,28201460,193053
OK,72,25,916,72,2014-10-02T02:45:00,0,28202358,193053
OK,72,25,916,72,2014-10-02T02:50:00,0,28202800,193053
OK,72,25,916,72,2014-10-02T02:55:00,0,28203248,193053
OK,72,25,916,72,2014-10-02T03:00:00,0,28203683,193053
OK,72,25,916,72,2014-10-02T03:10:00,0,28204132,193053
OK,72,25,916,72,2014-10-02T03:25:00,0,28204581,193053
OK,72,25,916,72,2014-10-02T03:30:00,0,28205030,193053
OK,72,25,916,72,2014-10-02T03:35:00,0,28205458,193053
OK,72,25,916,72,2014-10-02T03:40:00,0,28205905,193053
OK,72,25,916,72,2014-10-02T03:45:00,0,28206288,193053
OK,72,25,916,72,2014-10-02T03:55:00,0,28207186,193053
OK,72,25,916,72,2014-10-02T04:00:00,0,28207606,193053
OK,72,25,916,72,2014-10-02T04:05:00,0,28208054,193053
OK,72,25,916,72,2014-10-02T04:10:00,0,28208481,193053
OK,72,25,916,72,2014-10-02T04:15:00,0,28208930,193053
OK,72,25,916,72,2014-10-02T04:20:00,0,28209368,193053
OK,72,25,916,72,2014-10-02T04:25:00,0,28209817,193053
OK,72,25,916,72,2014-10-02T04:30:00,0,28210240,193053
OK,72,25,916,72,2014-10-02T04:35:00,0,28210689,193053
OK,72,25,916,72,2014-10-02T04:40:00,0,28211114,193053
OK,72,25,916,72,2014-10-02T04:45:00,0,28211558,193053
OK,72,25,916,72,2014-10-02T04:50:00,0,28211936,193053
OK,72,25,916,72,2014-10-02T04:55:00,0,28212385,193053
OK,72,25,916,72,2014-10-02T05:00:00,0,28212814,193053
OK,72,25,916,72,2014-10-02T05:05:00,0,28213263,193053
OK,72,25,916,72,2014-10-02T05:10:00,0,28213701,193053
OK,72,25,916,72,2014-10-02T05:15:00,0,28214150,193053
OK,72,25,916,72,2014-10-02T05:20:00,0,28214563,193053
OK,72,25,916,72,2014-10-02T05:25:00,0,28215012,193053
OK,72,25,916,72,2014-10-02T05:30:00,0,28215428,193053
OK,72,25,916,72,2014-10-02T05:40:00,0,28215877,193053
OK,72,25,916,72,2014-10-02T05:45:00,0,28216656,193053
OK,72,25,916,72,2014-10-02T05:50:00,0,28217103,193053
OK,72,25,916,72,2014-10-02T05:55:00,0,28217552,193053
OK,59,31,916,59,2014-10-02T06:00:00,2,28217991,193053
OK,59,31,916,59,2014-10-02T06:05:00,2,28218440,193053
OK,68,27,916,68,2014-10-02T06:10:00,0,28218860,193053
OK,68,27,916,68,2014-10-02T06:15:00,0,28219309,193053
OK,68,27,916,68,2014-10-02T06:20:00,0,28219682,193053
OK,82,22,916,82,2014-10-02T06:25:00,1,28220131,193053
OK,82,22,916,82,2014-10-02T06:30:00,1,28220565,193053
OK,45,41,916,45,2014-10-02T06:40:00,1,28221014,193053
OK,45,41,916,45,2014-10-02T06:45:00,1,28221681,193053
OK,45,41,916,45,2014-10-02T07:00:00,0,28222275,193053
OK,45,41,916,45,2014-10-02T07:05:00,0,28222724,193053
OK,104,17,916,104,2014-10-02T07:10:00,2,28223155,193053
OK,104,17,916,104,2014-10-02T07:15:00,2,28223591,193053
OK,104,17,916,104,2014-10-02T07:20:00,0,28224038,193053
OK,104,17,916,104,2014-10-02T07:25:00,0,28224393,193053
OK,104,17,916,104,2014-10-02T07:30:00,0,28224842,193053
OK,104,17,916,104,2014-10-02T07:35:00,0,28225291,193053
OK,104,17,916,104,2014-10-02T07:40:00,0,28225613,193053
OK,105,17,916,105,2014-10-02T07:50:00,1,28226503,193053
OK,92,20,916,92,2014-10-02T07:55:00,2,28226952,193053
OK,80,23,916,80,2014-10-02T08:00:00,1,28227367,193053
OK,105,17,916,105,2014-10-02T08:05:00,0,28227816,193053
OK,105,17,916,105,2014-10-02T08:10:00,0,28228175,193053
OK,105,17,916,105,2014-10-02T08:15:00,0,28228624,193053
OK,105,17,916,105,2014-10-02T08:20:00,0,28229034,193053
OK,105,17,916,105,2014-10-02T08:25:00,0,28229483,193053
OK,105,17,916,105,2014-10-02T08:30:00,0,28229833,193053
OK,91,20,916,91,2014-10-02T08:35:00,0,28230282,193053
OK,91,20,916,91,2014-10-02T08:40:00,0,28230649,193053
OK,91,20,916,91,2014-10-02T08:45:00,0,28231097,193053
OK,91,20,916,91,2014-10-02T08:50:00,0,28231520,193053
OK,91,20,916,91,2014-10-02T08:55:00,0,28231969,193053
OK,48,38,916,48,2014-10-02T09:00:00,1,28232311,193053
OK,48,38,916,48,2014-10-02T09:10:00,0,28232760,193053
OK,48,38,916,48,2014-10-02T09:15:00,0,28233209,193053
OK,48,38,916,48,2014-10-02T09:20:00,0,28233633,193053
OK,113,16,916,113,2014-10-02T09:25:00,2,28234082,193053
OK,111,16,916,111,2014-10-02T09:30:00,1,28234415,193053
OK,111,16,916,111,2014-10-02T09:35:00,0,28234864,193053
OK,111,16,916,111,2014-10-02T09:40:00,0,28235291,193053
OK,111,16,916,111,2014-10-02T09:45:00,0,28235740,193053
OK,111,16,916,111,2014-10-02T09:50:00,0,28236183,193053
OK,111,16,916,111,2014-10-02T09:55:00,0,28236630,193053
OK,111,16,916,111,2014-10-02T10:00:00,0,28237033,193053
OK,111,16,916,111,2014-10-02T10:05:00,0,28237481,193053
OK,111,16,916,111,2014-10-02T10:10:00,0,28237929,193053
OK,111,16,916,111,2014-10-02T10:15:00,0,28238376,193053
OK,111,16,916,111,2014-10-02T10:20:00,0,28238817,193053
OK,111,16,916,111,2014-10-02T10:25:00,0,28239266,193053
OK,111,16,916,111,2014-10-02T10:30:00,0,28239696,193053
OK,60,31,916,60,2014-10-02T10:35:00,0,28240145,193053
OK,60,31,916,60,2014-10-02T10:40:00,0,28240589,193053
OK,60,31,916,60,2014-10-02T10:45:00,0,28241038,193053
OK,60,31,916,60,2014-10-02T10:50:00,0,28241470,193053
OK,64,29,916,64,2014-10-02T10:55:00,0,28241918,193053
OK,64,29,916,64,2014-10-02T11:00:00,0,28242314,193053
OK,64,29,916,64,2014-10-02T11:05:00,0,28242763,193053
OK,64,29,916,64,2014-10-02T11:15:00,0,28243212,193053
OK,110,16,916,110,2014-10-02T11:20:00,1,28243975,193053
OK,110,16,916,110,2014-10-02T11:25:00,0,28244404,193053
OK,110,16,916,110,2014-10-02T11:30:00,0,28244853,193053
OK,70,26,916,70,2014-10-02T11:35:00,0,28245302,193053
OK,70,26,916,70,2014-10-02T11:40:00,0,28245708,193053
OK,70,26,916,70,2014-10-02T11:45:00,0,28246157,193053
OK,70,26,916,70,2014-10-02T11:50:00,0,28246594,193053
OK,70,26,916,70,2014-10-02T11:55:00,0,28247043,193053
OK,70,26,916,70,2014-10-02T12:00:00,0,28247489,193053
OK,70,26,916,70,2014-10-02T12:05:00,0,28247919,193053
OK,70,26,916,70,2014-10-02T12:10:00,0,28248368,193053
OK,147,12,916,147,2014-10-02T12:15:00,0,28248815,193053
OK,147,12,916,147,2014-10-02T12:20:00,0,28249243,193053
OK,147,12,916,147,2014-10-02T12:25:00,0,28249687,193053
OK,147,12,916,147,2014-10-02T12:30:00,0,28250106,193053
OK,86,21,916,86,2014-10-02T12:35:00,1,28250504,193053
OK,143,13,916,143,2014-10-02T12:45:00,1,28251284,193053
OK,143,13,916,143,2014-10-02T13:20:00,0,28251829,193053
OK,108,17,916,108,2014-10-02T13:30:00,2,28252413,193053
OK,88,21,916,88,2014-10-02T13:35:00,1,28252855,193053
OK,88,21,916,88,2014-10-02T13:40:00,0,28253272,193053
OK,102,18,916,102,2014-10-02T13:45:00,1,28253721,193053
OK,102,18,916,102,2014-10-02T13:50:00,1,28254126,193053
OK,109,17,916,109,2014-10-02T13:55:00,3,28254447,193053
OK,122,15,916,122,2014-10-02T14:10:00,1,28255024,193053
OK,122,15,916,122,2014-10-02T14:15:00,3,28255473,193053
OK,103,18,916,103,2014-10-02T14:20:00,2,28255901,193053
OK,72,25,916,72,2014-10-02T14:25:00,0,28256350,193053
OK,72,25,916,72,2014-10-02T14:30:00,0,28256778,193053
OK,58,32,916,58,2014-10-02T14:35:00,1,28257227,193053
OK,58,32,916,58,2014-10-02T14:40:00,1,28257668,193053
OK,57,32,916,57,2014-10-02T14:45:00,1,28258116,193053
OK,57,32,916,57,2014-10-02T14:50:00,0,28258549,193053
OK,57,32,916,57,2014-10-02T14:55:00,0,28258995,193053
OK,57,32,916,57,2014-10-02T15:00:00,0,28259444,193053
OK,57,32,916,57,2014-10-02T15:05:00,0,28259891,193053
OK,57,32,916,57,2014-10-02T15:10:00,0,28260324,193053
OK,105,17,916,105,2014-10-02T15:15:00,1,28260773,193053
OK,105,17,916,105,2014-10-02T15:20:00,1,28261213,193053
OK,98,19,916,98,2014-10-02T15:25:00,1,28261595,193053
OK,98,19,916,98,2014-10-02T15:30:00,1,28262025,193053
OK,98,19,916,98,2014-10-02T15:35:00,0,28262472,193053
OK,98,19,916,98,2014-10-02T15:40:00,0,28262918,193053
OK,98,19,916,98,2014-10-02T15:45:00,0,28263356,193053
OK,98,19,916,98,2014-10-02T15:50:00,0,28263797,193053
OK,98,19,916,98,2014-10-02T15:55:00,0,28264199,193053
OK,98,19,916,98,2014-10-02T16:00:00,0,28264648,193053
OK,118,15,916,118,2014-10-02T16:05:00,0,28265086,193053
OK,118,15,916,118,2014-10-02T16:10:00,0,28265526,193053
OK,118,15,916,118,2014-10-02T16:15:00,0,28265922,193053